Wetterdaten: Samstag, 14.02.2015
Datum Zeit Temp. A. Feuchte A. Luftdruck Regen Wind Richtung Richtung Sonnenschein ET UV Solar Taupunkt Windchill Windben Empfang
14.02.2015 00:00 -1,4 C 82 % 1017,1 hPa 0,0 l/m 0,0 km/h (0 Bft) O-SO 115 0 min 0,000 mm 0,0 UV-I 0 W/m -4,1 C -1,4 C 0,0 km/h (0 Bft) 0,00 %
14.02.2015 00:15 -1,4 C 82 % 1017,0 hPa 0,0 l/m 0,0 km/h (0 Bft) O-SO 120 0 min 0,000 mm 0,0 UV-I 0 W/m -4,1 C -1,4 C 0,0 km/h (0 Bft) 0,00 %
14.02.2015 00:30 -1,4 C 82 % 1016,9 hPa 0,0 l/m 0,0 km/h (0 Bft) SO 137 0 min 0,000 mm 0,0 UV-I 0 W/m -4,1 C -1,4 C 0,0 km/h (0 Bft) 0,00 %
14.02.2015 00:45 -1,3 C 82 % 1016,8 hPa 0,0 l/m 0,0 km/h (0 Bft) O-SO 116 0 min 0,000 mm 0,0 UV-I 0 W/m -4,0 C -1,3 C 0,0 km/h (0 Bft) 0,00 %
14.02.2015 01:00 -1,4 C 81 % 1016,4 hPa 0,0 l/m 4,0 km/h (1 Bft) O 93 0 min 0,000 mm 0,0 UV-I 0 W/m -4,2 C -1,4 C 7,9 km/h (2 Bft) 0,00 %
14.02.2015 01:15 -1,4 C 81 % 1016,4 hPa 0,0 l/m 0,7 km/h (0 Bft) S-SO 149 0 min 0,000 mm 0,0 UV-I 0 W/m -4,2 C -1,4 C 4,0 km/h (1 Bft) 0,00 %
14.02.2015 01:30 -1,5 C 81 % 1016,3 hPa 0,0 l/m 0,0 km/h (0 Bft) S 190 0 min 0,000 mm 0,0 UV-I 0 W/m -4,3 C -1,5 C 0,0 km/h (0 Bft) 0,00 %
14.02.2015 01:45 -1,5 C 82 % 1016,1 hPa 0,0 l/m 4,7 km/h (1 Bft) O-SO 116 0 min 0,000 mm 0,0 UV-I 0 W/m -4,2 C -1,5 C 7,9 km/h (2 Bft) 0,00 %
14.02.2015 02:00 -1,5 C 82 % 1016,3 hPa 0,0 l/m 4,0 km/h (1 Bft) SO 130 0 min 0,000 mm 0,0 UV-I 0 W/m -4,2 C -1,5 C 7,9 km/h (2 Bft) 0,00 %
14.02.2015 02:15 -1,6 C 82 % 1016,2 hPa 0,0 l/m 1,8 km/h (1 Bft) O-SO 118 0 min 0,000 mm 0,0 UV-I 0 W/m -4,3 C -1,6 C 4,0 km/h (1 Bft) 0,00 %
14.02.2015 02:30 -1,6 C 82 % 1016,1 hPa 0,0 l/m 2,9 km/h (1 Bft) O-SO 109 0 min 0,000 mm 0,0 UV-I 0 W/m -4,3 C -1,6 C 4,0 km/h (1 Bft) 0,00 %
14.02.2015 02:45 -1,6 C 82 % 1016,0 hPa 0,0 l/m 0,0 km/h (0 Bft) O 93 0 min 0,000 mm 0,0 UV-I 0 W/m -4,3 C -1,6 C 0,0 km/h (0 Bft) 0,00 %
14.02.2015 03:00 -1,6 C 82 % 1015,8 hPa 0,0 l/m 0,0 km/h (0 Bft) S 173 0 min 0,000 mm 0,0 UV-I 0 W/m -4,3 C -1,6 C 0,0 km/h (0 Bft) 0,00 %
14.02.2015 03:15 -1,7 C 82 % 1015,8 hPa 0,0 l/m 0,0 km/h (0 Bft) S 172 0 min 0,000 mm 0,0 UV-I 0 W/m -4,4 C -1,7 C 0,0 km/h (0 Bft) 0,00 %
14.02.2015 03:30 -1,7 C 82 % 1015,8 hPa 0,0 l/m 0,4 km/h (0 Bft) S-SO 168 0 min 0,000 mm 0,0 UV-I 0 W/m -4,4 C -1,7 C 4,0 km/h (1 Bft) 0,00 %
14.02.2015 03:45 -1,8 C 82 % 1016,0 hPa 0,0 l/m 0,0 km/h (0 Bft) S-SW 200 0 min 0,000 mm 0,0 UV-I 0 W/m -4,5 C -1,8 C 0,0 km/h (0 Bft) 0,00 %
14.02.2015 04:00 -1,9 C 82 % 1015,9 hPa 0,0 l/m 0,0 km/h (0 Bft) S 175 0 min 0,000 mm 0,0 UV-I 0 W/m -4,6 C -1,9 C 0,0 km/h (0 Bft) 0,00 %
14.02.2015 04:15 -1,9 C 82 % 1015,8 hPa 0,0 l/m 0,0 km/h (0 Bft) S-SW 197 0 min 0,000 mm 0,0 UV-I 0 W/m -4,6 C -1,9 C 0,0 km/h (0 Bft) 0,00 %
14.02.2015 04:30 -1,9 C 82 % 1015,7 hPa 0,0 l/m 0,0 km/h (0 Bft) W-SW 250 0 min 0,000 mm 0,0 UV-I 0 W/m -4,6 C -1,9 C 0,0 km/h (0 Bft) 0,00 %
14.02.2015 04:45 -2,0 C 82 % 1015,9 hPa 0,0 l/m 0,0 km/h (0 Bft) S-SW 199 0 min 0,000 mm 0,0 UV-I 0 W/m -4,7 C -2,0 C 0,0 km/h (0 Bft) 0,00 %
14.02.2015 05:00 -2,0 C 82 % 1015,8 hPa 0,0 l/m 0,0 km/h (0 Bft) SW 214 0 min 0,000 mm 0,0 UV-I 0 W/m -4,7 C -2,0 C 0,0 km/h (0 Bft) 0,00 %
14.02.2015 05:15 -2,1 C 83 % 1015,8 hPa 0,0 l/m 0,0 km/h (0 Bft) O-SO 121 0 min 0,000 mm 0,0 UV-I 0 W/m -4,6 C -2,1 C 0,0 km/h (0 Bft) 0,00 %
14.02.2015 05:30 -2,1 C 83 % 1016,1 hPa 0,0 l/m 0,0 km/h (0 Bft) W-SW 253 0 min 0,000 mm 0,0 UV-I 0 W/m -4,6 C -2,1 C 0,0 km/h (0 Bft) 0,00 %
14.02.2015 05:45 -2,2 C 83 % 1015,9 hPa 0,0 l/m 0,0 km/h (0 Bft) SW 215 0 min 0,000 mm 0,0 UV-I 0 W/m -4,7 C -2,2 C 0,0 km/h (0 Bft) 0,00 %
14.02.2015 06:00 -2,2 C 83 % 1015,9 hPa 0,0 l/m 0,0 km/h (0 Bft) S-SW 208 0 min 0,000 mm 0,0 UV-I 0 W/m -4,7 C -2,2 C 0,0 km/h (0 Bft) 0,00 %
14.02.2015 06:15 -2,2 C 83 % 1016,0 hPa 0,0 l/m 0,0 km/h (0 Bft) SO 131 0 min 0,000 mm 0,0 UV-I 0 W/m -4,7 C -2,2 C 0,0 km/h (0 Bft) 0,00 %
14.02.2015 06:30 -2,3 C 83 % 1016,0 hPa 0,0 l/m 0,0 km/h (0 Bft) SW 214 0 min 0,000 mm 0,0 UV-I 0 W/m -4,8 C -2,3 C 0,0 km/h (0 Bft) 0,00 %
14.02.2015 06:45 -2,3 C 83 % 1015,9 hPa 0,0 l/m 0,0 km/h (0 Bft) SW 221 0 min 0,000 mm 0,0 UV-I 0 W/m -4,8 C -2,3 C 0,0 km/h (0 Bft) 0,00 %
14.02.2015 07:00 -2,6 C 79 % 1015,7 hPa 0,0 l/m 0,0 km/h (0 Bft) S 175 0 min 0,000 mm 0,0 UV-I 0 W/m -5,7 C -2,6 C 0,0 km/h (0 Bft) 0,00 %
14.02.2015 07:15 -2,6 C 79 % 1016,0 hPa 0,0 l/m 0,0 km/h (0 Bft) SW 216 0 min 0,000 mm 0,0 UV-I 0 W/m -5,7 C -2,6 C 0,0 km/h (0 Bft) 0,00 %
14.02.2015 07:30 -2,8 C 79 % 1016,3 hPa 0,0 l/m 0,0 km/h (0 Bft) S 187 0 min 0,000 mm 0,0 UV-I 0 W/m -5,9 C -2,8 C 0,0 km/h (0 Bft) 0,00 %
14.02.2015 07:45 -2,8 C 80 % 1016,2 hPa 0,0 l/m 0,0 km/h (0 Bft) S-SW 203 0 min 0,000 mm 0,0 UV-I 4 W/m -5,8 C -2,8 C 0,0 km/h (0 Bft) 0,00 %
14.02.2015 08:00 -2,7 C 80 % 1016,2 hPa 0,0 l/m 0,0 km/h (0 Bft) S-SW 197 0 min 0,000 mm 0,0 UV-I 16 W/m -5,7 C -2,7 C 0,0 km/h (0 Bft) 0,00 %
14.02.2015 08:15 -2,6 C 79 % 1016,0 hPa 0,0 l/m 0,0 km/h (0 Bft) SW 214 0 min 0,000 mm 0,0 UV-I 29 W/m -5,7 C -2,6 C 0,0 km/h (0 Bft) 0,00 %
14.02.2015 08:30 -2,4 C 83 % 1015,9 hPa 0,0 l/m 1,8 km/h (1 Bft) SO 127 0 min 0,000 mm 0,0 UV-I 33 W/m -4,9 C -2,4 C 4,0 km/h (1 Bft) 0,00 %
14.02.2015 08:45 -2,5 C 83 % 1015,7 hPa 0,0 l/m 0,4 km/h (0 Bft) O-SO 115 0 min 0,000 mm 1,0 UV-I 44 W/m -5,0 C -2,5 C 4,0 km/h (1 Bft) 0,00 %
14.02.2015 09:00 -2,5 C 83 % 1015,8 hPa 0,0 l/m 0,0 km/h (0 Bft) S-SO 160 0 min 0,000 mm 1,0 UV-I 50 W/m -5,0 C -2,5 C 0,0 km/h (0 Bft) 0,00 %
14.02.2015 09:15 -2,2 C 82 % 1015,7 hPa 0,0 l/m 4,3 km/h (1 Bft) O 100 0 min 0,000 mm 1,0 UV-I 57 W/m -4,8 C -2,2 C 7,9 km/h (2 Bft) 0,00 %
14.02.2015 09:30 -2,1 C 82 % 1015,4 hPa 0,0 l/m 8,3 km/h (2 Bft) O-SO 105 0 min 0,000 mm 1,0 UV-I 65 W/m -4,7 C -4,2 C 11,9 km/h (2 Bft) 0,00 %
14.02.2015 09:45 -2,3 C 82 % 1015,5 hPa 0,0 l/m 0,0 km/h (0 Bft) S 189 0 min 0,000 mm 1,0 UV-I 75 W/m -4,9 C -2,3 C 0,0 km/h (0 Bft) 0,00 %
14.02.2015 10:00 -2,1 C 82 % 1015,2 hPa 0,0 l/m 1,4 km/h (1 Bft) O-SO 105 0 min 0,000 mm 1,0 UV-I 78 W/m -4,7 C -2,1 C 4,0 km/h (1 Bft) 0,00 %
14.02.2015 10:15 -2,1 C 82 % 1015,2 hPa 0,0 l/m 0,0 km/h (0 Bft) N 356 0 min 0,000 mm 1,0 UV-I 79 W/m -4,7 C -2,1 C 0,0 km/h (0 Bft) 0,00 %
14.02.2015 10:30 -2,1 C 82 % 1015,0 hPa 0,0 l/m 5,8 km/h (2 Bft) O-SO 120 0 min 0,000 mm 1,0 UV-I 85 W/m -4,7 C -2,1 C 7,9 km/h (2 Bft) 0,00 %
14.02.2015 10:45 -2,3 C 82 % 1015,0 hPa 0,0 l/m 0,0 km/h (0 Bft) O-NO 60 0 min 0,000 mm 1,0 UV-I 97 W/m -4,9 C -2,3 C 0,0 km/h (0 Bft) 0,00 %
14.02.2015 11:00 -2,3 C 82 % 1014,8 hPa 0,0 l/m 1,4 km/h (1 Bft) SO 129 0 min 0,000 mm 1,0 UV-I 103 W/m -4,9 C -2,3 C 4,0 km/h (1 Bft) 0,00 %
14.02.2015 11:15 -2,2 C 82 % 1014,6 hPa 0,0 l/m 7,9 km/h (2 Bft) O 94 0 min 0,000 mm 1,0 UV-I 120 W/m -4,8 C -3,9 C 11,9 km/h (2 Bft) 0,00 %
14.02.2015 11:30 -2,3 C 81 % 1014,6 hPa 0,0 l/m 4,3 km/h (1 Bft) O 100 0 min 0,000 mm 1,0 UV-I 138 W/m -5,1 C -2,3 C 7,9 km/h (2 Bft) 0,00 %
14.02.2015 11:45 -2,2 C 81 % 1014,5 hPa 0,0 l/m 2,2 km/h (1 Bft) O-SO 113 0 min 0,000 mm 1,0 UV-I 132 W/m -5,0 C -2,2 C 4,0 km/h (1 Bft) 0,00 %
14.02.2015 12:00 -2,1 C 80 % 1014,2 hPa 0,0 l/m 9,4 km/h (2 Bft) O 87 0 min 0,000 mm 1,0 UV-I 135 W/m -5,1 C -5,2 C 15,8 km/h (3 Bft) 0,00 %
14.02.2015 12:15 -2,1 C 80 % 1014,0 hPa 0,0 l/m 6,8 km/h (2 Bft) N-NO 22 0 min 0,000 mm 1,0 UV-I 131 W/m -5,1 C -2,5 C 7,9 km/h (2 Bft) 0,00 %
14.02.2015 12:30 -2,0 C 80 % 1013,5 hPa 0,0 l/m 6,5 km/h (2 Bft) O 96 0 min 0,000 mm 1,0 UV-I 130 W/m -5,0 C -2,1 C 7,9 km/h (2 Bft) 0,00 %
14.02.2015 12:45 -2,0 C 81 % 1013,6 hPa 0,0 l/m 1,8 km/h (1 Bft) N 355 0 min 0,000 mm 1,0 UV-I 114 W/m -4,8 C -2,0 C 4,0 km/h (1 Bft) 0,00 %
14.02.2015 13:00 -2,0 C 80 % 1013,4 hPa 0,0 l/m 1,4 km/h (1 Bft) O-SO 106 0 min 0,000 mm 1,0 UV-I 116 W/m -5,0 C -2,0 C 4,0 km/h (1 Bft) 0,00 %
14.02.2015 13:15 -1,7 C 80 % 1013,2 hPa 0,0 l/m 3,2 km/h (1 Bft) O-NO 61 0 min 0,000 mm 1,0 UV-I 111 W/m -4,7 C -1,7 C 7,9 km/h (2 Bft) 0,00 %
14.02.2015 13:30 -1,6 C 78 % 1013,1 hPa 0,0 l/m 2,9 km/h (1 Bft) O 98 0 min 0,000 mm 1,0 UV-I 129 W/m -4,9 C -1,6 C 7,9 km/h (2 Bft) 0,00 %
14.02.2015 13:45 -1,5 C 76 % 1012,8 hPa 0,0 l/m 0,4 km/h (0 Bft) S 176 0 min 0,000 mm 1,0 UV-I 125 W/m -5,2 C -1,5 C 4,0 km/h (1 Bft) 0,00 %
14.02.2015 14:00 -1,4 C 76 % 1012,9 hPa 0,0 l/m 4,3 km/h (1 Bft) O-SO 104 0 min 0,000 mm 2,0 UV-I 150 W/m -5,1 C -1,4 C 7,9 km/h (2 Bft) 0,00 %
14.02.2015 14:15 -1,3 C 75 % 1012,6 hPa 0,0 l/m 5,4 km/h (1 Bft) O-SO 113 0 min 0,000 mm 1,0 UV-I 142 W/m -5,1 C -1,3 C 7,9 km/h (2 Bft) 0,00 %
14.02.2015 14:30 -1,0 C 74 % 1012,5 hPa 0,0 l/m 0,0 km/h (0 Bft) S-SW 195 0 min 0,000 mm 1,0 UV-I 142 W/m -5,0 C -1,0 C 0,0 km/h (0 Bft) 0,00 %
14.02.2015 14:45 -1,0 C 73 % 1012,6 hPa 0,0 l/m 4,7 km/h (1 Bft) O 94 0 min 0,000 mm 2,0 UV-I 132 W/m -5,2 C -1,0 C 7,9 km/h (2 Bft) 0,00 %
14.02.2015 15:00 -1,3 C 74 % 1012,7 hPa 0,0 l/m 0,0 km/h (0 Bft) S-SW 209 0 min 0,000 mm 2,0 UV-I 163 W/m -5,3 C -1,3 C 0,0 km/h (0 Bft) 0,00 %
14.02.2015 15:15 -0,9 C 73 % 1012,7 hPa 0,0 l/m 4,7 km/h (1 Bft) O-SO 110 0 min 0,000 mm 1,0 UV-I 127 W/m -5,1 C -0,9 C 7,9 km/h (2 Bft) 0,00 %
14.02.2015 15:30 -0,8 C 74 % 1012,2 hPa 0,0 l/m 6,5 km/h (2 Bft) O 101 0 min 0,000 mm 1,0 UV-I 126 W/m -4,8 C -0,9 C 11,9 km/h (2 Bft) 0,00 %
14.02.2015 15:45 -1,2 C 75 % 1012,5 hPa 0,0 l/m 1,8 km/h (1 Bft) N-NO 28 0 min 0,000 mm 1,0 UV-I 91 W/m -5,0 C -1,2 C 4,0 km/h (1 Bft) 0,00 %
14.02.2015 16:00 -1,0 C 74 % 1012,3 hPa 0,0 l/m 2,9 km/h (1 Bft) O 101 0 min 0,000 mm 1,0 UV-I 89 W/m -5,0 C -1,0 C 4,0 km/h (1 Bft) 0,00 %
14.02.2015 16:15 -1,2 C 75 % 1012,3 hPa 0,0 l/m 0,7 km/h (0 Bft) O 85 0 min 0,000 mm 1,0 UV-I 70 W/m -5,0 C -1,2 C 4,0 km/h (1 Bft) 0,00 %
14.02.2015 16:30 -1,2 C 76 % 1012,2 hPa 0,0 l/m 0,0 km/h (0 Bft) SO 133 0 min 0,000 mm 1,0 UV-I 70 W/m -4,9 C -1,2 C 0,0 km/h (0 Bft) 0,00 %
14.02.2015 16:45 -1,5 C 77 % 1012,3 hPa 0,0 l/m 0,0 km/h (0 Bft) S 186 0 min 0,000 mm 0,0 UV-I 24 W/m -5,0 C -1,5 C 0,0 km/h (0 Bft) 0,00 %
14.02.2015 17:00 -1,8 C 78 % 1012,2 hPa 0,0 l/m 0,0 km/h (0 Bft) S 179 0 min 0,000 mm 0,0 UV-I 11 W/m -5,1 C -1,8 C 0,0 km/h (0 Bft) 0,00 %
14.02.2015 17:15 -2,2 C 79 % 1012,2 hPa 0,0 l/m 0,0 km/h (0 Bft) S-SW 194 0 min 0,000 mm 0,0 UV-I 0 W/m -5,3 C -2,2 C 0,0 km/h (0 Bft) 0,00 %
14.02.2015 17:30 -2,6 C 77 % 1012,4 hPa 0,0 l/m 0,0 km/h (0 Bft) S 190 0 min 0,000 mm 0,0 UV-I 0 W/m -6,1 C -2,6 C 0,0 km/h (0 Bft) 0,00 %
14.02.2015 17:45 -2,8 C 78 % 1012,5 hPa 0,0 l/m 0,0 km/h (0 Bft) S 191 0 min 0,000 mm 0,0 UV-I 0 W/m -6,1 C -2,8 C 0,0 km/h (0 Bft) 0,00 %
14.02.2015 18:00 -3,1 C 79 % 1012,6 hPa 0,0 l/m 0,0 km/h (0 Bft) S-SW 198 0 min 0,000 mm 0,0 UV-I 0 W/m -6,2 C -3,1 C 0,0 km/h (0 Bft) 0,00 %
14.02.2015 18:15 -3,2 C 79 % 1012,5 hPa 0,0 l/m 0,0 km/h (0 Bft) S-SW 194 0 min 0,000 mm 0,0 UV-I 0 W/m -6,3 C -3,2 C 0,0 km/h (0 Bft) 0,00 %
14.02.2015 18:30 -3,3 C 80 % 1012,8 hPa 0,0 l/m 0,0 km/h (0 Bft) SW 215 0 min 0,000 mm 0,0 UV-I 0 W/m -6,2 C -3,3 C 0,0 km/h (0 Bft) 0,00 %
14.02.2015 18:45 -3,8 C 80 % 1012,8 hPa 0,0 l/m 0,0 km/h (0 Bft) S-SW 197 0 min 0,000 mm 0,0 UV-I 0 W/m -6,7 C -3,8 C 0,0 km/h (0 Bft) 0,00 %
14.02.2015 19:00 -3,9 C 80 % 1012,8 hPa 0,0 l/m 0,0 km/h (0 Bft) S-SW 207 0 min 0,000 mm 0,0 UV-I 0 W/m -6,8 C -3,9 C 0,0 km/h (0 Bft) 0,00 %
14.02.2015 19:15 -3,8 C 81 % 1012,8 hPa 0,0 l/m 0,0 km/h (0 Bft) S 188 0 min 0,000 mm 0,0 UV-I 0 W/m -6,6 C -3,8 C 0,0 km/h (0 Bft) 0,00 %
14.02.2015 19:30 -3,9 C 80 % 1012,7 hPa 0,0 l/m 0,0 km/h (0 Bft) S-SW 200 0 min 0,000 mm 0,0 UV-I 0 W/m -6,8 C -3,9 C 0,0 km/h (0 Bft) 0,00 %
14.02.2015 19:45 -4,2 C 81 % 1012,8 hPa 0,0 l/m 0,0 km/h (0 Bft) S-SW 212 0 min 0,000 mm 0,0 UV-I 0 W/m -7,0 C -4,2 C 0,0 km/h (0 Bft) 0,00 %
14.02.2015 20:00 -4,4 C 80 % 1012,8 hPa 0,0 l/m 0,0 km/h (0 Bft) S-SW 202 0 min 0,000 mm 0,0 UV-I 0 W/m -7,3 C -4,4 C 0,0 km/h (0 Bft) 0,00 %
14.02.2015 20:15 -4,6 C 81 % 1012,9 hPa 0,0 l/m 0,0 km/h (0 Bft) S-SW 193 0 min 0,000 mm 0,0 UV-I 0 W/m -7,4 C -4,6 C 0,0 km/h (0 Bft) 0,00 %
14.02.2015 20:30 -4,8 C 81 % 1013,0 hPa 0,0 l/m 0,0 km/h (0 Bft) S 189 0 min 0,000 mm 0,0 UV-I 0 W/m -7,5 C -4,8 C 0,0 km/h (0 Bft) 0,00 %
14.02.2015 20:45 -4,6 C 81 % 1012,6 hPa 0,0 l/m 0,0 km/h (0 Bft) S-SW 198 0 min 0,000 mm 0,0 UV-I 0 W/m -7,4 C -4,6 C 0,0 km/h (0 Bft) 0,00 %
14.02.2015 21:00 -4,6 C 81 % 1012,6 hPa 0,0 l/m 0,0 km/h (0 Bft) S-SW 202 0 min 0,000 mm 0,0 UV-I 0 W/m -7,4 C -4,6 C 0,0 km/h (0 Bft) 0,00 %
14.02.2015 21:15 -4,9 C 81 % 1012,6 hPa 0,0 l/m 0,0 km/h (0 Bft) S-SW 209 0 min 0,000 mm 0,0 UV-I 0 W/m -7,6 C -4,9 C 0,0 km/h (0 Bft) 0,00 %
14.02.2015 21:30 -5,4 C 81 % 1012,7 hPa 0,0 l/m 0,0 km/h (0 Bft) S-SW 208 0 min 0,000 mm 0,0 UV-I 0 W/m -8,1 C -5,4 C 0,0 km/h (0 Bft) 0,00 %
14.02.2015 21:45 -5,8 C 81 % 1012,6 hPa 0,0 l/m 0,0 km/h (0 Bft) S-SW 199 0 min 0,000 mm 0,0 UV-I 0 W/m -8,5 C -5,8 C 0,0 km/h (0 Bft) 0,00 %
14.02.2015 22:00 -6,1 C 81 % 1012,6 hPa 0,0 l/m 0,0 km/h (0 Bft) S-SW 201 0 min 0,000 mm 0,0 UV-I 0 W/m -8,8 C -6,1 C 0,0 km/h (0 Bft) 0,00 %
14.02.2015 22:15 -6,5 C 82 % 1012,6 hPa 0,0 l/m 0,0 km/h (0 Bft) S-SW 207 0 min 0,000 mm 0,0 UV-I 0 W/m -9,0 C -6,5 C 0,0 km/h (0 Bft) 0,00 %
14.02.2015 22:30 -6,4 C 81 % 1012,4 hPa 0,0 l/m 0,0 km/h (0 Bft) S-SW 195 0 min 0,000 mm 0,0 UV-I 0 W/m -9,1 C -6,4 C 0,0 km/h (0 Bft) 0,00 %
14.02.2015 22:45 -6,4 C 81 % 1012,4 hPa 0,0 l/m 0,0 km/h (0 Bft) S 187 0 min 0,000 mm 0,0 UV-I 0 W/m -9,1 C -6,4 C 0,0 km/h (0 Bft) 0,00 %
14.02.2015 23:00 -6,2 C 81 % 1012,5 hPa 0,0 l/m 0,0 km/h (0 Bft) S-SW 199 0 min 0,000 mm 0,0 UV-I 0 W/m -8,9 C -6,2 C 0,0 km/h (0 Bft) 0,00 %
14.02.2015 23:15 -6,0 C 81 % 1012,3 hPa 0,0 l/m 0,0 km/h (0 Bft) SW 219 0 min 0,000 mm 0,0 UV-I 0 W/m -8,7 C -6,0 C 0,0 km/h (0 Bft) 0,00 %
14.02.2015 23:30 -5,4 C 80 % 1012,3 hPa 0,0 l/m 0,0 km/h (0 Bft) S-SW 204 0 min 0,000 mm 0,0 UV-I 0 W/m -8,3 C -5,4 C 0,0 km/h (0 Bft) 0,00 %
14.02.2015 23:45 -5,1 C 80 % 1012,2 hPa 0,0 l/m 0,0 km/h (0 Bft) SW 224 0 min 0,000 mm 0,0 UV-I 0 W/m -8,0 C -5,1 C 0,0 km/h (0 Bft) 0,00 %
_ Min-Zeit 22:15 14:45 15:30 - 00:00 - - - - - - 22:30 22:15 00:00 00:00
Minimum _ -6,5 C 73 % 1012,2 hPa - 0,0 km/h (0 Bft) - - - - - - -9,1 C -6,5 C 0,0 km/h (0 Bft) 0,00 %
_ Max-Zeit 15:30 05:15 00:00 00:00 12:00 - - 00:00 00:00 14:00 15:00 00:45 15:30 12:00 00:00
Maximum _ -0,8 C 83 % 1017,1 hPa 0,0 l/m 9,4 km/h
O (2 Bft)
- - 0 min 0,000 mm 2,0 UV-I 163 W/m -4,0 C -0,9 C 15,8 km/h
O (3 Bft)
0,00 %
Durchschnitt _ -2,6 C 80 % 1014,3 hPa #0,0 l/m 1,3 km/h (1 Bft) O-SO - #0 min. #0,000 mm 1,1 UV-I 93 W/m -5,6 C -2,7 C 2,3 km/h (1 Bft) 0,00 %